Regional Weather Roundup
Issued by NWS

Home | Current Version | Previous Version | Graphics & Text | Print | Product List | Glossary On
Versions: 1 2 3 4 5 6 7 8 9 10 11 12 13 14 15 16 17 18 19 20 21 22 23 24 25 26 27 28 29 30 31 32 33 34 35 36 37 38 39 40 41 42 43 44 45 46 47 48 49 50
000
ASUS43 KOAX 010610
RWRNE

WEATHER ROUNDUP FOR NEBRASKA
NATIONAL WEATHER SERVICE OMAHA NE
1200 AM CST WED MAR 01 2017

NOTES: SATELLITE DATA IS BEING USED TO AUGMENT CLOUD COVER ABOVE
       12000 FEET.
       "FAIR" INDICATES FEW OR NO CLOUDS BELOW 12,000 FEET WITH NO
       SIGNIFICANT WEATHER AND/OR OBSTRUCTIONS TO VISIBILITY.

  * THESE STATIONS DO NOT REPORT WEATHER SUCH AS RAIN...SNOW OR FOG.

NEZ001>004-019>022-054>056-010700-
NEBRASKA PANHANDLE

CITY           SKY/WX    TMP DP  RH WIND       PRES   REMARKS
SCOTTSBLUFF    CLEAR     25  12  58 W16       29.92R WCI  12
6HR MIN TEMP:  24; 6HR MAX TEMP:  31;

ALLIANCE       CLEAR     18  10  71 W17       29.88R WCI   3
6HR MIN TEMP:  12; 6HR MAX TEMP:  25;

CHADRON        CLOUDY    21  11  65 SW12      29.89R WCI   9
6HR MIN TEMP:  12; 6HR MAX TEMP:  30;

KIMBALL        CLEAR     23  12  63 W18G24    29.92S WCI   9
SIDNEY         CLEAR     27   9  46 W22       29.92R WCI  13
6HR MIN TEMP:  26; 6HR MAX TEMP:  33;

$$

NEZ057>060-069>072-079>082-010700-
SOUTHWEST NEBRASKA

CITY           SKY/WX    TMP DP  RH WIND       PRES   REMARKS
NORTH PLATTE   CLEAR     20  13  74 W7        29.89R WCI  11
6HR MIN TEMP:  20; 6HR MAX TEMP:  38;

IMPERIAL       CLEAR     23  14  68 W7        29.93R WCI  15
6HR MIN TEMP:  23; 6HR MAX TEMP:  37;

LEXINGTON      MOCLDY    28  20  70 NW13      29.89S WCI  18
MCCOOK         CLEAR     33  16  49 NW21G30   29.92R WCI  21
6HR MIN TEMP:  28; 6HR MAX TEMP:  40;

OGALLALA       CLEAR     31  16  53 W22G29    29.90S WCI  18
$$

NEZ005>010-023>029-035>040-094-010700-
NORTH CENTRAL NEBRASKA

CITY           SKY/WX    TMP DP  RH WIND       PRES   REMARKS
VALENTINE      MOCLDY    20  17  88 W6        29.87R WCI  12
6HR MIN TEMP:  19; 6HR MAX TEMP:  31;

AINSWORTH      CLEAR     25  23  91 NW8       29.85S WCI  16
BROKEN BOW     PTCLDY    28  23  81 W6        29.86R WCI  22
6HR MIN TEMP:  27; 6HR MAX TEMP:  38;

O`NEILL        CLOUDY    31  26  84 NW18      29.85R WCI  19
ORD            PTCLDY    32  26  78 NW14      29.84S WCI  22
6HR MIN TEMP:  32; 6HR MAX TEMP:  39;

THEDFORD       CLEAR     21  18  89 NW6       29.86R WCI  13
$$

NEZ041-046>049-061>064-073>077-083>087-010700-
SOUTH CENTRAL NEBRASKA

CITY           SKY/WX    TMP DP  RH WIND       PRES   REMARKS
GRAND ISLAND   PTCLDY    33  26  75 NW12      29.85R WCI  24
6HR MIN TEMP:  33; 6HR MAX TEMP:  42; 6HR PCP: TRACE;

AURORA         CLOUDY    33  28  81 NW14      29.83S WCI  24
HASTINGS       CLOUDY    34  25  69 NW14      29.86R WCI  25
6HR MIN TEMP:  34; 6HR MAX TEMP:  43;

HEBRON         MOCLDY    37  31  81 W7        29.85R WCI  31
HOLDREGE       PTCLDY    31  18  58 W6        29.90R WCI  25
KEARNEY *      PTCLDY    34  21  60 NW10      29.88R WCI  26
YORK           MOCLDY    32  32 100 NW7       29.82S WCI  26
$$

NEZ011>018-030>034-042>045-010700-
NORTHEAST NEBRASKA

CITY           SKY/WX    TMP DP  RH WIND       PRES   REMARKS
NORFOLK        CLOUDY    32  27  81 NW17      29.82R WCI  21
6HR MIN TEMP:  32; 6HR MAX TEMP:  35;

ALBION         CLOUDY    33  29  83 NW16G24   29.84R WCI  23
BLAIR          CLOUDY    35  33  92 NW10      29.75F WCI  27
FREMONT        CLOUDY    35  34  98 W14       29.80R WCI  26
TEKAMAH        CLOUDY    35  32  88 NW13      29.77F WCI  26
6HR MIN TEMP:  35; 6HR MAX TEMP:  38; 6HR PCP:  0.01;

WAYNE          CLOUDY    32  31  95 NW17G23   29.80R WCI  21
$$

NEZ050>053-065>068-078-088>093-010700-
SOUTHEAST NEBRASKA

CITY           SKY/WX    TMP DP  RH WIND       PRES   REMARKS
LINCOLN        CLOUDY    36  32  85 NW12      29.82R WCI  28
6HR MIN TEMP:  36; 6HR MAX TEMP:  43; 6HR PCP: TRACE;

OMAHA EPPLEY   CLOUDY    35  31  85 NW9       29.75F WCI  28
6HR MIN TEMP:  35; 6HR MAX TEMP:  41; 6HR PCP:  0.03;

BEATRICE       CLOUDY    37  33  85 W6        29.83R WCI  32
FALLS CITY     CLOUDY    39  36  89 NW16      29.72F WCI  30
6HR MIN TEMP:  38; 6HR MAX TEMP:  49; 6HR PCP:  0.06;

NEBRASKA CITY  MOCLDY    37  33  87 NW9       29.75F WCI  30
PLATTSMOUTH    CLOUDY    37  32  84 NW14      29.74F WCI  28
$$

NEZ044-045-051>053-067-010700-
OMAHA AREA

CITY           SKY/WX    TMP DP  RH WIND       PRES   REMARKS
OMAHA EPPLEY   CLOUDY    35  31  85 NW9       29.75F WCI  28
6HR MIN TEMP:  35; 6HR MAX TEMP:  41; 6HR PCP:  0.03;

BLAIR          CLOUDY    35  33  92 NW10      29.75F WCI  27
FREMONT        CLOUDY    35  34  98 W14       29.80R WCI  26
MILLARD        CLOUDY    38  35  89 NW9       29.76F WCI  31
OFFUTT AFB     CLOUDY    36  33  87 NW10      29.74F WCI  29
PLATTSMOUTH    CLOUDY    37  32  84 NW14      29.74F WCI  28
WAHOO          CLOUDY    36  33  90 NW15      29.80R WCI  26
$$




USA.gov is the U.S. government's official web portal to all federal, state and local government web resources and services.